sat.trackr.live / text

‹ back to catalog

QIANFAN-93

NORAD 66035 · 2025-233C

PAYLOAD ACTIVE UNKNOWN

§ Identity

Operator
Country
PRC
Launch date
2025-10-17
Launch site
TAISC
Launch vehicle
Mass (kg)
RCS (m²)

External: N2YO · Heavens-Above · Gunter

§ Orbital elements

Epoch: 2026-09-20T18:20:32.908128Z

Period
106.59 min
Inclination
89.0064°
Eccentricity
0.0001808
Mean motion
13.51012699 rev/d
Perigee alt
1,067.2 km
Apogee alt
1,069.9 km
Semi-major
7,446.7 km
B*
4.5702e-5
RAAN
33.5616°
Arg perigee
93.6061°
Mean anomaly
266.5297°
Rev number
4,608

§ Raw data

QIANFAN-931 66035U 25233C   26263.76426977  .00000041  00000+0  45702-4 0  99982 66035  89.0064  33.5616 0001808  93.6061 266.5297 13.51012699 46087

JSON: /api/v1/satellites/66035 · /tle

For live sub-satellite position, see the globe view (requires WebGL).

§ Visibility from observer

Set your observer location to see the next 7 days of passes ≥ 10°. The values pass through the URL so the page stays shareable.

No JS? Fill the form by hand. The geolocation button needs JavaScript.